SBPASBFL

Guest
Details From SBPA - Salgado Filho
To SBFL - Hercillo Luz
Flight Number -
Tags Generated
Created
Modified
Stats Distance 196 nm / 364 km
Max Altitude 0 ft / 0 m
Waypoints 3
Social Downloads 3
Likes 0
Share VATSIM

Download

Looking for another format? Having issues loading an existing format? Contact us
Advertisement - Login to hide

Notes

Generated

Route

SBPA PAJAM SBFL

ID Type Via Altitude Latitude Longitude Leg Dist Tot Dist Heading (true) Name
O SBPA APT - 0 ft / 0 m -29.99414˚ -51.18327˚ - 0 nm - -
PAJAM FIX - 0 ft / 0 m -28.10517˚ -48.96383˚ 162 nm 162 nm 46° / 45° -
O SBFL APT - 0 ft / 0 m -27.67664˚ -48.55458˚ 33 nm 196 nm 40° / 40° -

Altitude Profile

Advertisement - Login to hide

Weather


0- 5 10 15 20 25 30 35+ Temperature / ° C

Clouds and Precipitation
Forecast for 2017-12-18 00:00 UTC. Updated 18 minutes ago

Ground ~20,000 ft ~40,000 ft Winds

SBPA

Details ICAO SBPA (POA)
Name Salgado Filho
Region Brazil
Timezone America/Sao_Paulo (UTC-2.0)
Stats Elevation 11 ft / 3 m (AMSL)
Location -29.994428° -51.171426°
Runways 1
Magnetic Variation 16.880° W

METAR

SBPA 172100Z 29008KT 260V320 9999 SCT015 24/22 Q1011

Decode

TAF

Not found

Departure Runways

ID Width Length Bearing (true) Bearing (mag) Surface Threshold Offset Overrun Length
11 138 ft / 42 m 7,487 ft / 2,282 m 91.60° 108.48° Asphalt 0 ft / 0 m 230 ft / 70 m
29 138 ft / 42 m 7,487 ft / 2,282 m 271.59° 288.47° Asphalt 0 ft / 0 m 197 ft / 60 m

SBFL

Details ICAO SBFL (FLN)
Name Hercillo Luz
Region Brazil
Timezone America/Sao_Paulo (UTC-2.0)
Stats Elevation 19 ft / 6 m (AMSL)
Location -27.670487° -48.547180°
Runways 2
Magnetic Variation 19.321° W

METAR

SBFL 172100Z 01018KT 9999 SCT025 BKN100 27/23 Q1008

Decode

TAF

TAF SBFL 171430Z 1718/1818 01012KT 9999 SCT030 TX31/1718Z TN22/1809Z BECMG 1719/1721 18012KT PROB30 TEMPO 1721/1723 8000 SHRA BKN020 FEW035TCU RMK PER

Decode

Destination Runways

ID Width Length Bearing (true) Bearing (mag) Surface Threshold Offset Overrun Length
03 148 ft / 45 m 4,939 ft / 1,505 m 11.55° 30.87° Concrete 0 ft / 0 m 0 ft / 0 m
14 148 ft / 45 m 7,543 ft / 2,299 m 121.30° 140.62° Asphalt 720 ft / 219 m 0 ft / 0 m
21 148 ft / 45 m 4,939 ft / 1,505 m 191.55° 210.87° Concrete 0 ft / 0 m 0 ft / 0 m
32 148 ft / 45 m 7,543 ft / 2,299 m 301.29° 320.61° Asphalt 0 ft / 0 m 200 ft / 61 m

Approach Navaids

Runway Type Ident Frequency Range Bearing (true) Bearing (mag) Slope Elevation
14 Localiser IFL 110.30 MHz 18 nm / 33 km 121.67° 140.99° - 19 ft / 6 m (AMSL)
14 Glidescope IFL 110.30 MHz 10 nm / 19 km 121.29° 140.61° 3.00° 19 ft / 6 m (AMSL)

Popular Alternatives